When you browse on this site, cookies collect data to enhance your experience and personalize the content and advertising you see.
Visit our Privacy Policy to learn more. By continuing to use the site, you agree to this use of cookies and data.
  • En España
  • Lista de países
  • Para 7 días
  • Temperatura del agua
  • El tiempo en el mapa
  • Informadores
  • user-avatar
    Iniciar sesión

    Tiempo cada hora Lepe

    Hoy, 24 Enero, Viernes

    Tiempo Temperatura Precipitaciones Viento Presión Humedad
    00:00 +9°C° 0 mm 2 mps 760 mmHg 93%
    01:00 +9°C° 0.1 mm 2 mps 760 mmHg 94%
    02:00 +9°C° 0.1 mm 2 mps 760 mmHg 94%
    03:00 +9°C° 0.1 mm 2 mps 760 mmHg 95%
    04:00 +9°C° 0.1 mm 2 mps 760 mmHg 95%
    05:00 +9°C° 0.1 mm 2 mps 760 mmHg 95%
    06:00 +9°C° 0 mm 2 mps 760 mmHg 96%
    07:00 +9°C° 0.3 mm 3 mps 760 mmHg 95%
    08:00 +10°C° 0.3 mm 4 mps 760 mmHg 95%
    09:00 +10°C° 0.3 mm 5 mps 760 mmHg 95%
    10:00 +11°C° 0.9 mm 6 mps 760 mmHg 90%
    11:00 +12°C° 0.9 mm 7 mps 760 mmHg 85%
    12:00 +13°C° 0.9 mm 8 mps 760 mmHg 80%
    13:00 +13°C° 1.1 mm 8 mps 760 mmHg 80%
    14:00 +13°C° 1.1 mm 8 mps 759 mmHg 81%
    15:00 +13°C° 1.1 mm 8 mps 758 mmHg 82%
    16:00 +12°C° 0.7 mm 7 mps 758 mmHg 84%
    17:00 +13°C° 0.7 mm 6 mps 758 mmHg 86%
    18:00 +12°C° 0.7 mm 5 mps 758 mmHg 89%
    19:00 +12°C° 1 mm 4 mps 759 mmHg 90%
    20:00 +11°C° 1 mm 4 mps 759 mmHg 91%
    21:00 +11°C° 1 mm 3 mps 759 mmHg 92%
    22:00 +11°C° 0.4 mm 3 mps 759 mmHg 93%
    23:00 +11°C° 0.4 mm 3 mps 759 mmHg 93%

    Mañana, 25 Enero, Sábado

    Tiempo Temperatura Precipitaciones Viento Presión Humedad
    00:00 +10°C° 0.4 mm 3 mps 759 mmHg 94%
    01:00 +10°C° 0.5 mm 3 mps 759 mmHg 94%
    02:00 +10°C° 0.5 mm 3 mps 758 mmHg 94%
    03:00 +10°C° 0.5 mm 3 mps 758 mmHg 94%
    04:00 +10°C° 0.3 mm 3 mps 758 mmHg 94%
    05:00 +10°C° 0.3 mm 2 mps 758 mmHg 93%
    06:00 +10°C° 0.3 mm 2 mps 758 mmHg 92%
    07:00 +12°C° 0.1 mm 2 mps 758 mmHg 91%
    08:00 +12°C° 0.1 mm 2 mps 758 mmHg 90%
    09:00 +12°C° 0.1 mm 2 mps 759 mmHg 89%
    10:00 +13°C° 0.2 mm 3 mps 759 mmHg 82%
    11:00 +16°C° 0.2 mm 3 mps 759 mmHg 74%
    12:00 +17°C° 0.2 mm 3 mps 759 mmHg 67%
    13:00 +17°C° 0.3 mm 2 mps 758 mmHg 65%
    14:00 +17°C° 0.3 mm 2 mps 758 mmHg 64%
    15:00 +19°C° 0.3 mm 1 mps 758 mmHg 62%
    16:00 +16°C° 0.2 mm 1 mps 758 mmHg 68%
    17:00 +15°C° 0.2 mm 1 mps 759 mmHg 75%
    18:00 +13°C° 0.2 mm 1 mps 759 mmHg 81%
    19:00 +12°C° 0 mm 2 mps 760 mmHg 82%
    20:00 +12°C° 0 mm 2 mps 760 mmHg 84%
    21:00 +10°C° 0 mm 3 mps 761 mmHg 86%
    22:00 +10°C° 0 mm 3 mps 761 mmHg 88%
    23:00 +9°C° 0 mm 3 mps 761 mmHg 90%

    Pasado mañana, 26 Enero, Domingo

    Tiempo Temperatura Precipitaciones Viento Presión Humedad
    00:00 +9°C° 0 mm 3 mps 762 mmHg 92%
    01:00 +9°C° 0 mm 3 mps 762 mmHg 93%
    02:00 +8°C° 0 mm 3 mps 762 mmHg 93%
    03:00 +8°C° 0 mm 3 mps 763 mmHg 94%
    04:00 +8°C° 0 mm 3 mps 763 mmHg 94%
    05:00 +7°C° 0 mm 2 mps 763 mmHg 94%
    06:00 +7°C° 0 mm 2 mps 763 mmHg 94%
    07:00 +8°C° 0 mm 2 mps 764 mmHg 93%
    08:00 +8°C° 0 mm 2 mps 764 mmHg 91%
    09:00 +9°C° 0 mm 2 mps 765 mmHg 89%
    10:00 +12°C° 0 mm 1 mps 765 mmHg 83%
    11:00 +13°C° 0 mm 1 mps 765 mmHg 76%
    12:00 +15°C° 0 mm 1 mps 765 mmHg 69%
    13:00 +16°C° 0 mm 1 mps 765 mmHg 65%
    14:00 +16°C° 0 mm 2 mps 765 mmHg 62%
    15:00 +17°C° 0 mm 2 mps 765 mmHg 58%
    16:00 +15°C° 0 mm 2 mps 765 mmHg 66%
    17:00 +12°C° 0 mm 3 mps 765 mmHg 74%
    18:00 +11°C° 0 mm 3 mps 765 mmHg 81%
    19:00 +10°C° 0 mm 2 mps 765 mmHg 84%
    20:00 +10°C° 0 mm 2 mps 766 mmHg 86%
    21:00 +9°C° 0 mm 2 mps 766 mmHg 88%
    22:00 +9°C° 0 mm 2 mps 766 mmHg 89%
    23:00 +10°C° 0 mm 1 mps 766 mmHg 90%

    27 Enero, Lunes

    Tiempo Temperatura Precipitaciones Viento Presión Humedad
    00:00 +9°C° 0 mm 1 mps 766 mmHg 90%
    01:00 +9°C° 0 mm 1 mps 766 mmHg 90%
    02:00 +9°C° 0 mm 1 mps 765 mmHg 91%
    03:00 +8°C° 0 mm 0 mps 765 mmHg 91%
    04:00 +9°C° 0 mm 1 mps 765 mmHg 91%
    05:00 +9°C° 0 mm 1 mps 765 mmHg 91%
    06:00 +9°C° 0 mm 1 mps 765 mmHg 92%
    07:00 +10°C° 0 mm 1 mps 765 mmHg 91%
    08:00 +9°C° 0 mm 2 mps 765 mmHg 89%
    09:00 +10°C° 0 mm 2 mps 765 mmHg 88%
    10:00 +12°C° 0 mm 3 mps 765 mmHg 83%
    11:00 +14°C° 0 mm 3 mps 765 mmHg 78%
    12:00 +15°C° 0 mm 4 mps 765 mmHg 72%
    13:00 +15°C° 0 mm 4 mps 765 mmHg 72%
    14:00 +17°C° 0 mm 4 mps 764 mmHg 72%
    15:00 +16°C° 0 mm 5 mps 764 mmHg 72%
    16:00 +15°C° 0 mm 5 mps 764 mmHg 77%
    17:00 +13°C° 0 mm 4 mps 764 mmHg 83%
    18:00 +12°C° 0 mm 4 mps 764 mmHg 88%
    19:00 +12°C° 0 mm 4 mps 764 mmHg 89%
    20:00 +12°C° 0 mm 3 mps 764 mmHg 91%
    21:00 +11°C° 0 mm 3 mps 765 mmHg 93%
    22:00 +11°C° 0 mm 3 mps 764 mmHg 93%
    23:00 +11°C° 0 mm 3 mps 764 mmHg 93%

    28 Enero, Martes

    Tiempo Temperatura Precipitaciones Viento Presión Humedad
    00:00 +11°C° 0 mm 3 mps 764 mmHg 93%
    01:00 +11°C° 0 mm 3 mps 764 mmHg 93%
    02:00 +12°C° 0 mm 3 mps 764 mmHg 93%
    03:00 +12°C° 0 mm 3 mps 764 mmHg 93%
    04:00 +12°C° 0 mm 3 mps 764 mmHg 93%
    05:00 +12°C° 0 mm 3 mps 763 mmHg 93%
    06:00 +12°C° 0 mm 3 mps 763 mmHg 94%
    07:00 +12°C° 0 mm 3 mps 763 mmHg 92%
    08:00 +13°C° 0 mm 3 mps 764 mmHg 91%
    09:00 +14°C° 0 mm 3 mps 764 mmHg 89%
    10:00 +15°C° 0.1 mm 4 mps 764 mmHg 84%
    11:00 +16°C° 0.1 mm 5 mps 764 mmHg 78%
    12:00 +17°C° 0.1 mm 5 mps 764 mmHg 72%
    13:00 +17°C° 0 mm 5 mps 763 mmHg 72%
    14:00 +17°C° 0 mm 6 mps 763 mmHg 73%
    15:00 +17°C° 0 mm 6 mps 762 mmHg 73%
    16:00 +16°C° 0 mm 5 mps 763 mmHg 78%
    17:00 +15°C° 0 mm 5 mps 763 mmHg 84%
    18:00 +14°C° 0 mm 4 mps 763 mmHg 89%
    19:00 +14°C° 0 mm 4 mps 763 mmHg 91%
    20:00 +13°C° 0 mm 3 mps 764 mmHg 92%
    21:00 +13°C° 0 mm 3 mps 764 mmHg 93%
    22:00 +13°C° 0 mm 3 mps 764 mmHg 94%
    23:00 +13°C° 0 mm 2 mps 764 mmHg 94%

    29 Enero, Miércoles

    Tiempo Temperatura Precipitaciones Viento Presión Humedad
    00:00 +13°C° 0 mm 2 mps 764 mmHg 94%
    01:00 +13°C° 0 mm 2 mps 763 mmHg 94%
    02:00 +12°C° 0 mm 1 mps 763 mmHg 95%
    03:00 +12°C° 0 mm 1 mps 763 mmHg 95%
    04:00 +12°C° 0 mm 1 mps 763 mmHg 95%
    05:00 +12°C° 0 mm 1 mps 763 mmHg 96%
    06:00 +12°C° 0 mm 1 mps 762 mmHg 96%
    07:00 +12°C° 0 mm 1 mps 763 mmHg 95%
    08:00 +13°C° 0 mm 2 mps 763 mmHg 94%
    09:00 +13°C° 0 mm 3 mps 763 mmHg 93%
    10:00 +14°C° 0 mm 3 mps 763 mmHg 86%
    11:00 +15°C° 0 mm 4 mps 763 mmHg 79%
    12:00 +17°C° 0 mm 4 mps 763 mmHg 73%
    13:00 +17°C° 0 mm 4 mps 762 mmHg 71%
    14:00 +17°C° 0 mm 4 mps 762 mmHg 69%
    15:00 +17°C° 0 mm 4 mps 761 mmHg 66%
    16:00 +16°C° 0 mm 3 mps 762 mmHg 73%
    17:00 +14°C° 0 mm 3 mps 762 mmHg 79%
    18:00 +13°C° 0 mm 3 mps 762 mmHg 86%
    19:00 +12°C° 0 mm 3 mps 762 mmHg 87%
    20:00 +12°C° 0 mm 3 mps 762 mmHg 89%
    21:00 +12°C° 0 mm 3 mps 762 mmHg 90%
    22:00 +13°C° 0 mm 3 mps 762 mmHg 91%
    23:00 +13°C° 0 mm 3 mps 762 mmHg 91%
    Mostrar más